Location: Newark
(17.1333°N, 61.8333°W)
Time: 21:00:19
(UTC+00:00)

Envisat - Pass Details

Date: 27 July 2019
Orbit: 764 x 766 km, 98.1° (Epoch: 19 August)

Event Time Altitude Azimuth Distance (km) Brightness Sun altitude
Rises 23:16:44 0° 187° (S) 3,220 6.1 -8.5°
Reaches altitude 10° 23:19:13 10° 197° (SSW) 2,295 5.4 -9.1°
Maximum altitude 23:23:45 33° 260° (W) 1,264 4.8 -10.1°
Drops below altitude 10° 23:28:17 10° 324° (NW) 2,298 6.5 -11.0°
Sets 23:30:48 0° 334° (NNW) 3,225 7.1 -11.6°
